Location: ?????????
(41.1143°N, 22.7905°E)
Time: 05:41:50
(UTC+00:00)

COSMO-SKYMED 1 - Pass Details

Date: 20 March 2026
Orbit: 576 x 578 km, 97.9° (Epoch: 15 April)

Event Time Altitude Azimuth Distance (km) Brightness Sun altitude
Rises 03:59:01 0° 162° (SSE) 2,778 6.1 -7.1°
Reaches altitude 10° 04:01:10 10° 161° (SSE) 1,884 5.2 -6.7°
Maximum altitude 04:05:14 76° 75° (ENE) 599 2.7 -6.0°
Drops below altitude 10° 04:09:20 10° 351° (N) 1,898 5.0 -5.2°
Sets 04:11:30 0° 350° (N) 2,801 5.9 -4.8°
